Home > Weather > Imst > Past weeks

Flag for Austria Past Weather in Imst, Tyrol, Austria — Yesterday and Last 2 Weeks

Now
68 °F

Mild.


Feels Like: 68 °F
Forecast: 56 / 72 °F
Wind: 2 mph from Southeast

Location: Landeck

Current Time: Jul 26, 2016 at 10:21:43 AM

Latest Report: Jul 26, 2016 at 10:00 AM


Visibility: N/A

Pressure: 30.09 "Hg (27.42 "Hg at 797m altitude)

Humidity: 76%

Dew Point: 60 °F

Location of ImstLocation

Past Weather in Imst — Graph

°F

Imst Temperature Yesterday

Maximum temperature yesterday: 75 °F (at 12:00 PM)
Minimum temperature yesterday: 61 °F (at 6:00 AM)
Average temperature yesterday: 67 °F

High & Low Weather Summary for the Past Weeks

 TemperatureHumidityPressure
High89 °F (Jul 20, 4:00 PM)94% (Jul 13, 12:00 AM)30.40 "Hg (Jul 13, 12:00 AM)
Low44 °F (Jul 16, 6:00 AM)20% (Jul 20, 4:00 PM)29.78 "Hg (Jul 11, 3:00 PM)
Average63 °F72%30.08 "Hg
* Reported Jul 11 9:00 AM — Jul 26 9:00 AM, Imst, Weather by CustomWeather, © 2016

Note: Actual official high and low records may vary slightly from our data, if they occured in-between our weather recording intervals... More about our weather records

Advertising

Imst Weather History for the Previous 24 Hours

Scroll right to see more
 ConditionsComfort  
Time TempWeatherWind HumidityBarometerVisibility
9:00 AM
Tue, Jul 26
62 °FCool.1 mph88%30.13 "HgN/A
8:00 AM60 °FCool.1 mph92%30.14 "HgN/A
7:00 AM59 °FCool.No wind92%30.15 "HgN/A
6:00 AM59 °FCool.2 mph91%30.14 "HgN/A
5:00 AM60 °FCool.1 mph91%30.14 "HgN/A
4:00 AM60 °FCool.1 mph93%30.15 "HgN/A
3:00 AM60 °FCool.1 mph94%30.14 "HgN/A
2:00 AM61 °FCool.1 mph93%30.13 "HgN/A
1:00 AM62 °FCool.1 mph94%30.14 "HgN/A
12:00 AM62 °FMild.1 mph93%30.14 "HgN/A
11:00 PM
Mon, Jul 25
63 °FMild.3 mph92%30.13 "HgN/A
10:00 PM64 °FMild.2 mph92%30.12 "HgN/A
9:00 PM65 °FSprinkles. Overcast.2 mph90%30.10 "HgN/A
8:00 PM69 °FMild.1 mph80%30.04 "HgN/A
7:00 PM72 °FMild.1 mph68%30.01 "HgN/A
6:00 PM73 °FPassing clouds.16 mph70%29.99 "Hg5 mi
5:00 PM73 °FMild.No wind69%29.99 "HgN/A
4:00 PM75 °FMild.1 mph62%29.98 "HgN/A
3:00 PM73 °FMild.1 mph66%30.00 "HgN/A
2:00 PM72 °FMild.1 mph68%30.00 "HgN/A
1:00 PM73 °FMild.1 mph68%29.99 "HgN/A
12:00 PM75 °FMild.2 mph62%30.00 "HgN/A
11:00 AM71 °FMild.1 mph71%30.03 "HgN/A
10:00 AM67 °FMild.1 mph78%30.06 "HgN/A
Weather by CustomWeather, © 2016

See weather overviewHow to use our weather pages